Погода в Железногорске-Илимском

Россия / Иркутская область     56°35′05″N   104°06′51″E
темп.,
°C
ветер,
м/с
пор.,
м/с
влажн.,
%
обл.,
%
осадки,
мм/ч
давл.,
гПа
погр.,
м
14 апреля, ср
ср1423:00−6зюз25969 0.1 101884
02:00−6зюз2597100 0.1 1018102
05:00−4зюз299799 0.3 1017406
08:00−2з498992 0.7 1018674
11:00−1з4777100 0.1 10171080
14:00+1з5870100 1.1 10151491
17:00+1зсз596791 0.8 10141575
20:00−2з378295 1.1 1015206
15 апреля, чт
чт1523:00−3юз2794100 0.1 1013272
02:00−3зюз2698100 1.5 1011332
05:00−4з0199100 1.1 101015
08:00−3ссз2694100 2.0 1012588
11:00−1ссз5770100 0.7 10141382
14:00+1сз5758100 1.4 10161672
17:00+1сз476388 0.6 10171481
20:00−4зюз1189100 0.6 102010
16 апреля, пт
пт1623:00−5ююз2693100 0.0 1020110
02:00−3юз31090100 0.0 1018404
05:00−3юз51390100 0.0 1016688
08:00−1юз61593100 0.5 1014846
11:00+1зюз71596100 0.9 1011867
14:00+3зюз61491100 1.1 1011930
17:00+5зюз61381100 0.0 10091148
20:00+4юз6158476 0.0 1009897
17 апреля, сб
сб1723:00+3юз6168842 0.0 1007943
02:00+3юз61683100 0.0 1005915
05:00+3юз61683100 0.0 1005808
08:00+3юз61392100 0.0 10051050
11:00−2сз2895100 0.9 1009459
14:00+1зсз4779100 1.2 1009877
17:000сз4669100 0.1 10111190
20:00−2сз3674100 0.9 1014884
18 апреля, вс
вс1823:00−5ссз4871100 0.1 1018869
02:00−7ссз36785 0.1 1021466
05:00−9ссз14835 0.0 1023187
08:00−8с126563 0.0 1024801
11:00−4в11525 0.0 1023871
14:00−1вюв234743 0.0 10201054
17:000вюв4651100 0.0 10161134
20:00−2вюв41170100 0.0 1014533